179  
ASUS44 KSHV 192010  
RWRSHV  
 
WEATHER ROUNDUP FOR THE FOUR STATE AREA  
NATIONAL WEATHER SERVICE SHREVEPORT LA  
300 PM CDT FRI JUL 19 2019  
 
NOTE: "FAIR" INDICATES FEW OR NO CLOUDS BELOW 12000 FEET  
WITH NO SIGNIFICANT WEATHER AND/OR S TO VISIBILITY
.  
 
!LAZ001-LAZ014-TXZ097-192100  
SHREVEPORT...MONROE...TEXARKANA RADIOS  
 
CITY SKY/WX TMP DP RH WIND PRES REMARKS
 
SHREVEPORT MOSUNNY 91 74 57 S9 30.00F HX 100  
MONROE PTSUNNY 93 75 55 S9 30.02F HX 104  
NATCHITOCHES N/A 95 74 50 SW8 30.01F HX 106  
TEXARKANA MOSUNNY 89 72 56 S12 30.00F  

 
 
!LAZ001-LAZ014-TXZ097-192100  
OTHER LOCATIONS...  
 
CITY SKY/WX TMP DP RH WIND PRES REMARKS
 
DOWNTOWN SHV PTSUNNY 93 72 50 S8 30.00F HX 101  
BOSSIER CITY N/A 92 71 50 S6 30.00F HX 99  
RUSTON N/A 90 71 52 S7 30.06F  
LITTLE ROCK MOSUNNY 92 74 55 S9 29.98F HX 101  
EL DORADO N/A 92 74 55 S8 30.01F HX 101  
JACKSON PTSUNNY 92 72 51 SW9 30.04F HX 99  
NEW ORLEANS LGT RAIN 87 76 69 SE8 30.06F  
HOUSTON PTSUNNY 91 74 57 SE13 30.00F HX 100  
LUFKIN MOSUNNY 92 72 51 S7G17 30.00F HX 99  
TYLER MOSUNNY 92 68 45 S12 30.00F  
DAL FT WORTH MOSUNNY 95 68 41 S18G24 29.93F HX 99  

 
 
!TXZ136-TXZ165-192100  
TYLER...LUFKIN RADIOS  
 
CITY SKY/WX TMP DP RH WIND PRES REMARKS
 
TYLER MOSUNNY 92 68 45 S12 30.00F  
GILMER PTCLDY 92 71 50 S10G17 30.00F  
LONGVIEW MOSUNNY 93 74 53 S9 29.99F HX 103  
LUFKIN MOSUNNY 92 72 51 S7G17 30.00F HX 99  

 
 
!TXZ136-TXZ165-192100  
OTHER LOCATIONS...  
 
CITY SKY/WX TMP DP RH WIND PRES REMARKS
 
NACOGDOCHES PTSUNNY 92 75 57 SE7 30.01F HX 103  
BEAUMONT N/A 93 76 57 S13 30.02F HX 105  
HOUSTON PTSUNNY 91 74 57 SE13 30.00F HX 100  
COLLEGE STN MOSUNNY 95 72 47 SE13G22 29.99F HX 103  
AUSTIN MOSUNNY 94 71 47 S9G20 29.96F HX 101  
DAL FT WORTH MOSUNNY 95 68 41 S18G24 29.93F HX 99  
TEXARKANA MOSUNNY 89 72 56 S12 30.00F  
SHREVEPORT MOSUNNY 91 74 57 S9 30.00F HX 100  
FORT POLK PTSUNNY 91 73 56 S9 30.01F HX 99  
LAKE CHARLES N/A 92 75 57 S9 30.03F HX 103  

 
 
 
CLICK HERE TO GO TO PREVIOUS BULLETINS.

The Nexlab LA Page
The Nexlab TX Page
The Nexlab AR Page
The Nexlab OK Page Main Text Page